Flag for U.S.A. Weather past 2 weeks in Centennial, Colorado, U.S.A.

Now
47 °F

Partly cloudy.


Feels Like: 44 °F
Forecast: 44 / 72 °F
Wind: 6 mph from South

Location: Centennial Airport

Current Time: May 30, 2015 at 3:16:11 AM

Latest Report: May 30, 2015 at 2:53 AM


Visibility: 10 mi

Pressure: 30.22 "Hg

Humidity: 86%

Dew point: 43 °F

Location of CentennialLocation

Historic Weather in Centennial — Graph

°F

Centennial temperature yesterday

Maximum temperature yesterday: 67 °F (at 2:53 PM)
Minimum temperature yesterday: 43 °F (at 4:53 AM)
Average temperature yesterday: 54 °F

Past Weeks' High & Low Weather Summary

 TemperatureHumidityPressure
High74 °F (May 27, 3:53 PM)100% (May 19, 12:53 AM)30.34 "Hg (May 19, 12:53 AM)
Low36 °F (May 20, 5:53 AM)29% (May 27, 1:53 PM)29.56 "Hg (May 16, 12:53 PM)
Average51 °F73%29.96 "Hg
* Reported May 15 1:53 AM — May 30 1:53 AM, Centennial, Weather by CustomWeather, © 2015

Note: Actual official high and low records may vary slightly from our data, if they occured in-between our weather recording intervals... More about our weather records

Advertising

Centennial weather history for previous 24 hours

 ConditionsComfort  
Time TempWeatherWind HumidityBarometerVisibility
1:53 AM
Sat, May 30
47 °FMostly cloudy.5 mph83%30.25 "Hg10 mi
12:53 AM48 °FMostly cloudy.7 mph83%30.25 "Hg10 mi
11:53 PM
Fri, May 29
48 °FMostly cloudy.7 mph86%30.25 "Hg10 mi
10:53 PM50 °FMostly cloudy.7 mph80%30.25 "Hg10 mi
9:53 PM51 °FOvercast.8 mph83%30.25 "Hg10 mi
8:53 PM52 °FBroken clouds.12 mph80%30.24 "Hg10 mi
7:53 PM53 °FBroken clouds.10 mph74%30.24 "Hg10 mi
6:53 PM55 °FBroken clouds.18 mph69%30.22 "Hg10 mi
5:53 PM58 °FBroken clouds.13 mph60%30.19 "Hg10 mi
4:53 PM59 °FThunderstorms. Broken clouds.21 mph54%30.17 "Hg10 mi
3:53 PM64 °FBroken clouds.15 mph47%30.10 "Hg10 mi
2:53 PM67 °FBroken clouds.13 mph39%30.08 "Hg10 mi
1:53 PM65 °FPartly sunny.8 mph37%30.08 "Hg10 mi
12:53 PM65 °FScattered clouds.6 mph40%30.10 "Hg10 mi
11:53 AM63 °FScattered clouds.8 mph41%30.10 "Hg10 mi
10:53 AM60 °FScattered clouds.3 mph47%30.11 "Hg10 mi
9:53 AM58 °FPassing clouds.3 mph60%30.11 "Hg10 mi
8:53 AM55 °FPassing clouds.No wind67%30.11 "Hg10 mi
7:53 AM53 °FPassing clouds.3 mph74%30.10 "Hg10 mi
6:53 AM49 °FScattered clouds.5 mph84%30.09 "Hg10 mi
5:53 AM44 °FPassing clouds.No wind89%30.06 "Hg10 mi
4:53 AM43 °FPassing clouds.3 mph93%30.07 "Hg10 mi
3:53 AM45 °FPassing clouds.7 mph93%30.06 "Hg10 mi
Weather by CustomWeather, © 2015

See weather overviewHow to use our weather pages